Location: *
(32.8140°S, 174.6161°E)
Time: 13:28:35
(UTC+00:00)

SL-16 R/B - Pass Details

Date: 10 December 2019
Orbit: 843 x 845 km, 71.0° (Epoch: 22 January)

Event Time Altitude Azimuth Distance (km) Brightness Sun altitude
Exits shadow 15:07:10 41° 320° (NW) 1,214 2.5 -20.7°
Maximum altitude 15:09:10 70° 249° (WSW) 903 2.2 -20.4°
Drops below altitude 10° 15:14:53 10° 164° (SSE) 2,491 5.5 -19.6°
Sets 15:17:22 0° 162° (SSE) 3,432 6.5 -19.2°
